Boone, NC

7:04 PM EST on November 15, 2019 (GMT -0500)
Boone

Weather History for KTNB - September, 2019

Change the Weather History Date:

Thursday, September 19, 2019

  Actual Average (KGEV) Record (KGEV)
Temperature  
Mean Temperature 54 °F -  
Max Temperature 59 °F 73 °F 82 °F (1970)
Min Temperature 48 °F 52 °F 37 °F (1985)
Degree Days  
Heating Degree Days 11    
Growing Degree Days 4 (Base 50)    
Moisture  
Dew Point 53 °F    
Average Humidity 88    
Maximum Humidity 100    
Minimum Humidity 74    
Precipitation  
Precipitation 0.00 in - - ()
Sea Level Pressure  
Sea Level Pressure 30.32 in    
Wind  
Wind Speed 0 mph (ESE)    
Max Wind Speed 8 mph    
Max Gust Speed -    
Visibility 9 miles    
Events Rain    
Averages and records for this station are not official NWS values.
T = Trace of Precipitation, MM = Missing Value Source: NWS Daily Summary

Daily Weather History Graph

Daily Weather History Graph

Search for Another Location

Airport or City:

Astronomy

Sep. 19, 2019 Rise Set
Actual Time 7:12 AM EDT 7:28 PM EDT
Civil Twilight 6:46 AM EDT 7:54 PM EDT
Nautical Twilight 6:16 AM EDT 8:24 PM EDT
Astronomical Twilight 5:45 AM EDT 8:54 PM EDT
Moon 10:45 PM EDT (9/19) 12:05 PM EDT (9/19)
Length of Visible Light 13h 07m
Length of Day
12h 16m
Waning Gibbous, 74% of the Moon is Illuminated
Sep 19
Waning Gibbous
Sep 21
Last Quarter
Sep 28
New
Oct 5
First Quarter
Oct 13
Full

Hourly Weather History & Observations

Time (EDT) Temp. Dew Point Humidity Pressure Visibility Wind Dir Wind Speed Gust Speed Precip Events Conditions
12:15 AM 58.6 °F 58.3 °F 99% 30.28 in 7.0 mi Calm Calm - N/A   Mostly Cloudy
12:35 AM 58.5 °F 58.1 °F 99% 30.28 in 7.0 mi Calm Calm - N/A   Mostly Cloudy
12:55 AM 58.1 °F 58.1 °F 100% 30.28 in 7.0 mi Calm Calm - N/A   Mostly Cloudy
1:15 AM 58.5 °F 58.3 °F 99% 30.28 in 7.0 mi Calm Calm - N/A   Mostly Cloudy
1:35 AM 58.5 °F 58.1 °F 99% 30.29 in 10.0 mi Calm Calm - N/A   Mostly Cloudy
1:55 AM 59.0 °F 57.7 °F 96% 30.29 in 10.0 mi Calm Calm - N/A   Mostly Cloudy
2:15 AM 58.6 °F 57.6 °F 96% 30.29 in 7.0 mi ESE 4.6 mph - N/A Rain Rain
2:35 AM 58.1 °F 56.7 °F 95% 30.29 in 10.0 mi SE 8.1 mph - N/A   Overcast
2:55 AM 58.1 °F 54.5 °F 88% 30.29 in 10.0 mi Calm Calm - N/A   Overcast
3:15 AM 57.7 °F 53.4 °F 85% 30.29 in 10.0 mi Calm Calm - N/A   Overcast
3:35 AM 57.6 °F 54.0 °F 88% 30.29 in 10.0 mi Calm Calm - N/A   Mostly Cloudy
3:55 AM 57.4 °F 53.6 °F 87% 30.30 in 10.0 mi Calm Calm - N/A   Overcast
4:15 AM 57.2 °F 53.8 °F 88% 30.29 in 10.0 mi Calm Calm - N/A   Overcast
4:35 AM 56.8 °F 53.4 °F 88% 30.29 in 10.0 mi Calm Calm - N/A   Overcast
4:55 AM 56.7 °F 53.1 °F 88% 30.29 in 10.0 mi Calm Calm - N/A   Overcast
5:15 AM 56.7 °F 53.1 °F 88% 30.29 in 10.0 mi Calm Calm - N/A   Overcast
5:35 AM 56.3 °F 53.4 °F 90% 30.29 in 10.0 mi Calm Calm - N/A   Mostly Cloudy
5:55 AM 56.3 °F 53.1 °F 89% 30.30 in 10.0 mi Calm Calm - N/A   Overcast
6:15 AM 55.9 °F 54.0 °F 93% 30.30 in 10.0 mi Calm Calm - N/A   Mostly Cloudy
6:35 AM 55.8 °F 54.0 °F 94% 30.31 in 10.0 mi Calm Calm - N/A   Mostly Cloudy
6:55 AM 55.4 °F 54.0 °F 95% 30.31 in 10.0 mi Calm Calm - N/A   Mostly Cloudy
7:15 AM 55.2 °F 54.0 °F 96% 30.32 in 10.0 mi Calm Calm - N/A   Mostly Cloudy
7:35 AM 55.0 °F 53.6 °F 95% 30.32 in 10.0 mi Calm Calm - N/A   Overcast
7:55 AM 54.7 °F 52.0 °F 91% 30.33 in 10.0 mi Calm Calm - N/A   Overcast
8:15 AM 55.2 °F 52.2 °F 89% 30.33 in 10.0 mi Calm Calm - N/A   Overcast
8:35 AM 54.5 °F 52.3 °F 92% 30.33 in 7.0 mi Calm Calm - N/A   Overcast
8:55 AM 54.7 °F 52.9 °F 94% 30.34 in 10.0 mi Calm Calm - N/A   Overcast
9:15 AM 54.9 °F 52.5 °F 92% 30.34 in 10.0 mi Calm Calm - N/A   Overcast
9:55 AM 55.6 °F 51.3 °F 85% 30.35 in 10.0 mi Calm Calm - N/A   Mostly Cloudy
10:15 AM 55.4 °F 51.3 °F 86% 30.35 in 7.0 mi Calm Calm - N/A   Overcast
10:35 AM 57.2 °F 50.7 °F 79% 30.35 in 10.0 mi Calm Calm - N/A   Overcast
10:55 AM 57.0 °F 50.0 °F 77% 30.35 in 10.0 mi Calm Calm - N/A   Overcast
11:15 AM 56.8 °F 50.0 °F 78% 30.36 in 10.0 mi Calm Calm - N/A   Overcast
11:35 AM 57.2 °F 50.2 °F 77% 30.36 in 10.0 mi Calm Calm - N/A   Overcast
11:55 AM 57.4 °F 49.5 °F 75% 30.36 in 10.0 mi Calm Calm - N/A   Overcast
12:15 PM 56.8 °F 51.6 °F 83% 30.36 in 10.0 mi Calm Calm - N/A   Overcast
12:35 PM 56.3 °F 51.1 °F 83% 30.36 in 10.0 mi Calm Calm - N/A   Overcast
12:55 PM 56.7 °F 49.6 °F 77% 30.36 in 10.0 mi Calm Calm - N/A   Overcast
1:15 PM 57.4 °F 50.5 °F 78% 30.35 in 10.0 mi Calm Calm - N/A   Overcast
1:35 PM 58.3 °F 51.3 °F 77% 30.35 in 10.0 mi Calm Calm - N/A   Overcast
1:55 PM 57.6 °F 49.3 °F 74% 30.35 in 10.0 mi Calm Calm - N/A   Overcast
2:15 PM 57.2 °F 50.5 °F 78% 30.35 in 10.0 mi Calm Calm - N/A   Overcast
2:35 PM 57.4 °F 52.2 °F 83% 30.35 in 10.0 mi Calm Calm - N/A   Overcast
2:55 PM 57.2 °F 51.8 °F 82% 30.34 in 10.0 mi Calm Calm - N/A   Overcast
3:15 PM 57.4 °F 52.3 °F 83% 30.33 in 10.0 mi Calm Calm - N/A   Overcast
3:35 PM 57.0 °F 51.8 °F 83% 30.33 in 10.0 mi Calm Calm - N/A   Overcast
3:55 PM 57.2 °F 50.5 °F 78% 30.33 in 10.0 mi Calm Calm - N/A   Overcast
4:15 PM 57.4 °F 50.9 °F 79% 30.32 in 10.0 mi Calm Calm - N/A   Overcast
4:35 PM 57.4 °F 50.7 °F 78% 30.32 in 10.0 mi Calm Calm - N/A   Overcast
4:55 PM 57.0 °F 50.9 °F 80% 30.32 in 10.0 mi Calm Calm - N/A   Overcast
5:15 PM 57.2 °F 51.6 °F 82% 30.32 in 10.0 mi Calm Calm - N/A   Overcast
5:35 PM 57.4 °F 52.3 °F 83% 30.32 in 10.0 mi Calm Calm - N/A   Overcast
5:55 PM 57.0 °F 52.0 °F 83% 30.32 in 10.0 mi Calm Calm - N/A   Overcast
6:15 PM 56.5 °F 53.1 °F 88% 30.32 in 10.0 mi Calm Calm - N/A   Overcast
6:35 PM 56.3 °F 52.0 °F 85% 30.32 in 10.0 mi Calm Calm - N/A   Overcast
6:55 PM 56.3 °F 51.8 °F 85% 30.32 in 10.0 mi Calm Calm - N/A   Overcast
7:15 PM 56.3 °F 51.6 °F 84% 30.31 in 10.0 mi Calm Calm - N/A   Overcast
7:35 PM 55.6 °F 52.2 °F 88% 30.32 in 10.0 mi Calm Calm - N/A   Overcast
7:55 PM 55.4 °F 52.3 °F 89% 30.32 in 10.0 mi Calm Calm - N/A   Overcast
8:15 PM 55.6 °F 53.6 °F 93% 30.32 in 7.0 mi Calm Calm - N/A   Overcast
8:35 PM 55.6 °F 54.0 °F 94% 30.33 in 10.0 mi Calm Calm - N/A   Overcast
8:55 PM 55.4 °F 54.0 °F 95% 30.33 in 10.0 mi Calm Calm - N/A   Overcast
9:15 PM 55.4 °F 54.1 °F 96% 30.33 in 10.0 mi Calm Calm - N/A   Overcast
10:15 PM 52.0 °F 52.0 °F 100% 30.35 in 10.0 mi Calm Calm - N/A   Clear
10:35 PM 51.8 °F 51.8 °F 100% 30.35 in 10.0 mi Calm Calm - N/A   Clear
10:55 PM 50.4 °F 50.4 °F 100% 30.36 in 5.0 mi Calm Calm - N/A   Clear
11:15 PM 49.5 °F 49.5 °F 100% 30.36 in 7.0 mi Calm Calm - N/A   Clear
11:35 PM 49.3 °F 49.3 °F 100% 30.36 in 5.0 mi Calm Calm - N/A   Clear
11:55 PM 48.7 °F 48.7 °F 100% 30.36 in 5.0 mi Calm Calm - N/A   Clear